{"data":{"norad_id":63395,"epoch":"2026-05-24T16:54:38.646144Z","epoch_age_seconds":103765,"freshness":"FRESH","line1":"1 63395U 25052BH  26144.70461396  .00004626  00000+0  37863-3 0  9990","line2":"2 63395  97.6885  38.5979 0004982 115.9817 244.1920 14.99795855 65248","mean_motion":14.99795855,"eccentricity":0.0004982,"inclination_deg":97.6885,"raan_deg":38.5979,"arg_perigee_deg":115.9817,"mean_anomaly_deg":244.192,"bstar":0.00037863,"rev_number":6524,"period_min":96.013067058383,"perigee_km":564.06621814038,"apogee_km":570.98687729933,"semimajor_km":6945.6635477199,"source":"CELESTRAK","updated_at":"2026-05-25T13:38:13.542750Z"}}